This demonstration page uses our WeatherBlox Daily Observations layout. Learn more.

Left ArrowRight Arrow

34.02893, -84.19858

Hourly Observations for January 30, 2018

Temp ( °F °C ) Dew Point ( °F °C ) Humidity (%) Winds ( mph kmh ) Pressure ( in mb ) Visibility ( mi km ) Precip ( " mm )
12:16 am 00:16 Mostly Cloudy 38 3.3 28 -2.2 68 68 NW 17 28 30.24 1024 10 16 0.00 0.00
12:53 am 00:53 Cloudy 37 2.8 27 -2.8 67 67 NW 17 28 30.24 1024 10 16 0.00 0.00
1:53 am 01:53 Cloudy 35 1.7 25 -3.9 67 67 NNW 18 30 30.27 1025 10 16 0.00 0.00
2:38 am 02:38 Cloudy 34 1.1 22 -5.6 61 61 NW 20 31 30.33 1027 10 16 0.00 0.00
2:53 am 02:53 Cloudy 33 0.6 21 -6.1 61 61 NNW 18 30 30.29 1026 10 16 0.00 0.00
3:53 am 03:53 Mostly Cloudy 32 0 20 -6.7 61 61 NW 21 33 30.29 1026 10 16 0.00 0.00
4:53 am 04:53 Clear 31 -0.6 18 -7.8 59 59 NW 14 22 30.29 1026 10 16 0.00 0.00
5:53 am 05:53 Clear 30 -1.1 17 -8.3 58 58 NNW 7 11 30.30 1026 10 16 0.00 0.00
6:53 am 06:53 Clear 30 -1.1 17 -8.3 58 58 NW 10 17 30.32 1027 10 16 0.00 0.00
7:53 am 07:53 Sunny 29 -1.7 18 -7.8 63 63 NW 7 11 30.36 1028 10 16 0.00 0.00
8:53 am 08:53 Sunny 32 0 19 -7.2 59 59 NNW 9 15 30.37 1028 10 16 0.00 0.00
9:53 am 09:53 Sunny 34 1.1 18 -7.8 52 52 NNW 9 15 30.41 1030 10 16 0.00 0.00
10:53 am 10:53 Sunny 36 2.2 19 -7.2 50 50 NW 12 19 30.44 1031 10 16 0.00 0.00
11:53 am 11:53 Sunny 37 2.8 19 -7.2 48 48 WNW 9 15 30.44 1031 10 16 0.00 0.00
12:53 pm 12:53 Sunny 40 4.4 19 -7.2 43 43 NW 13 20 30.41 1030 10 16 0.00 0.00
1:53 pm 13:53 Sunny 43 6.1 17 -8.3 35 35 NW 10 17 30.37 1029 10 16 0.00 0.00
2:53 pm 14:53 Sunny 43 6.1 17 -8.3 35 35 NNW 10 17 30.35 1028 10 16 0.00 0.00
3:53 pm 15:53 Sunny 44 6.7 15 -9.4 31 31 NNW 7 11 30.33 1027 10 16 0.00 0.00
4:53 pm 16:53 Sunny 44 6.7 16 -8.9 32 32 WNW 12 19 30.34 1027 10 16 0.00 0.00
5:53 pm 17:53 Sunny 41 5 15 -9.4 35 35 NNW 12 19 30.36 1028 10 16 0.00 0.00
6:53 pm 18:53 Clear 39 3.9 14 -10 36 36 NW 12 19 30.37 1029 10 16 0.00 0.00
7:53 pm 19:53 Clear 37 2.8 14 -10 39 39 NNW 12 19 30.38 1029 10 16 0.00 0.00
8:53 pm 20:53 Clear 36 2.2 15 -9.4 42 42 N 7 11 30.38 1029 10 16 0.00 0.00
9:53 pm 21:53 Clear 34 1.1 15 -9.4 46 46 NNW 9 15 30.38 1029 10 16 0.00 0.00
10:53 pm 22:53 Clear 33 0.6 15 -9.4 47 47 WNW 3 6 30.40 1029 10 16 0.00 0.00
11:53 pm 23:53 Clear 33 0.6 14 -10 45 45 NE 3 6 30.38 1029 10 16 0.00 0.00

Powered by AerisWeather